TimeEDT,TemperatureF,Dew PointF,Humidity,Sea Level PressureIn,VisibilityMPH,Wind Direction,Wind SpeedMPH,Gust SpeedMPH,PrecipitationIn,Events,Conditions,WindDirDegrees,DateUTC
12:15 AM,59.0,55.4,88,30.00,10.0,Calm,Calm,-,N/A,,Clear,0,2013-06-15 04:15:00
12:33 AM,59.0,55.4,88,29.99,10.0,Calm,Calm,-,N/A,,Clear,0,2013-06-15 04:33:00
12:54 AM,57.2,55.4,94,30.00,10.0,Calm,Calm,-,N/A,,Clear,0,2013-06-15 04:54:00
1:12 AM,57.2,55.4,94,30.00,10.0,Calm,Calm,-,N/A,,Clear,0,2013-06-15 05:12:00
1:33 AM,57.2,55.4,94,30.00,10.0,Calm,Calm,-,N/A,,Clear,0,2013-06-15 05:33:00
1:54 AM,57.2,55.4,94,30.01,10.0,Calm,Calm,-,N/A,,Clear,0,2013-06-15 05:54:00
2:15 AM,55.4,53.6,94,30.01,10.0,Calm,Calm,-,N/A,,Clear,0,2013-06-15 06:15:00
2:33 AM,55.4,53.6,94,30.00,10.0,Calm,Calm,-,N/A,,Clear,0,2013-06-15 06:33:00
2:54 AM,55.4,53.6,94,30.00,10.0,Calm,Calm,-,N/A,,Clear,0,2013-06-15 06:54:00
3:15 AM,55.4,53.6,94,30.01,7.0,Calm,Calm,-,N/A,,Clear,0,2013-06-15 07:15:00
3:33 AM,55.4,53.6,94,30.01,7.0,Calm,Calm,-,N/A,,Clear,0,2013-06-15 07:33:00
3:54 AM,55.4,53.6,94,30.02,7.0,Calm,Calm,-,N/A,,Clear,0,2013-06-15 07:54:00
4:15 AM,55.4,53.6,94,30.01,7.0,Calm,Calm,-,N/A,,Clear,0,2013-06-15 08:15:00
4:33 AM,55.4,53.6,94,30.01,7.0,Calm,Calm,-,N/A,,Clear,0,2013-06-15 08:33:00
4:54 AM,55.4,53.6,94,30.01,5.0,Calm,Calm,-,N/A,,Clear,0,2013-06-15 08:54:00
5:15 AM,55.4,53.6,94,30.01,5.0,Calm,Calm,-,N/A,,Clear,0,2013-06-15 09:15:00
5:33 AM,53.6,53.6,100,30.02,4.0,Calm,Calm,-,N/A,,Clear,0,2013-06-15 09:33:00
5:54 AM,53.6,51.8,94,30.03,4.0,Calm,Calm,-,N/A,,Clear,0,2013-06-15 09:54:00
6:15 AM,53.6,53.6,100,30.05,5.0,Calm,Calm,-,N/A,,Unknown,0,2013-06-15 10:15:00
6:36 AM,55.4,53.6,94,30.06,7.0,Calm,Calm,-,N/A,,Clear,0,2013-06-15 10:36:00
6:54 AM,55.4,55.4,100,30.06,7.0,Calm,Calm,-,N/A,,Clear,0,2013-06-15 10:54:00
7:15 AM,59.0,57.2,94,30.07,10.0,Calm,Calm,-,N/A,,Clear,0,2013-06-15 11:15:00
7:36 AM,60.8,59.0,94,30.08,10.0,Calm,Calm,-,N/A,,Clear,0,2013-06-15 11:36:00
7:54 AM,64.4,59.0,83,30.08,10.0,WNW,4.6,-,N/A,,Clear,300,2013-06-15 11:54:00
8:15 AM,68.0,59.0,73,30.09,10.0,WNW,3.5,-,N/A,,Clear,290,2013-06-15 12:15:00
8:36 AM,69.8,60.8,73,30.09,10.0,NW,4.6,-,N/A,,Clear,310,2013-06-15 12:36:00
8:54 AM,71.6,59.0,64,30.09,10.0,NW,6.9,-,N/A,,Clear,310,2013-06-15 12:54:00
9:15 AM,71.6,59.0,64,30.10,10.0,WNW,5.8,-,N/A,,Clear,300,2013-06-15 13:15:00
9:36 AM,73.4,59.0,61,30.09,10.0,West,5.8,-,N/A,,Clear,270,2013-06-15 13:36:00
9:54 AM,73.4,55.4,53,30.09,10.0,NNW,4.6,-,N/A,,Clear,340,2013-06-15 13:54:00
10:15 AM,73.4,53.6,50,30.09,10.0,NNW,6.9,-,N/A,,Clear,330,2013-06-15 14:15:00
10:36 AM,75.2,57.2,53,30.09,10.0,NW,5.8,-,N/A,,Clear,310,2013-06-15 14:36:00
10:54 AM,77.0,55.4,47,30.08,10.0,WSW,8.1,-,N/A,,Clear,250,2013-06-15 14:54:00
11:15 AM,77.0,57.2,50,30.08,10.0,WNW,8.1,-,N/A,,Clear,300,2013-06-15 15:15:00
11:36 AM,77.0,55.4,47,30.08,10.0,WNW,8.1,-,N/A,,Clear,290,2013-06-15 15:36:00
11:54 AM,77.0,55.4,47,30.07,10.0,West,5.8,-,N/A,,Clear,280,2013-06-15 15:54:00
12:15 PM,78.8,57.2,47,30.07,10.0,West,6.9,-,N/A,,Clear,280,2013-06-15 16:15:00
12:36 PM,78.8,55.4,44,30.07,10.0,NW,6.9,10.4,N/A,,Clear,310,2013-06-15 16:36:00
12:54 PM,78.8,53.6,42,30.07,10.0,West,5.8,-,N/A,,Clear,280,2013-06-15 16:54:00
1:15 PM,78.8,53.6,42,30.06,10.0,West,6.9,-,N/A,,Clear,270,2013-06-15 17:15:00
1:36 PM,78.8,51.8,39,30.06,10.0,West,11.5,17.3,N/A,,Clear,270,2013-06-15 17:36:00
1:54 PM,78.8,51.8,39,30.05,10.0,West,8.1,17.3,N/A,,Clear,280,2013-06-15 17:54:00
2:15 PM,78.8,51.8,39,30.04,10.0,WNW,9.2,-,N/A,,Clear,300,2013-06-15 18:15:00
2:36 PM,80.6,51.8,37,30.03,10.0,West,8.1,17.3,N/A,,Clear,260,2013-06-15 18:36:00
2:57 PM,77.0,53.6,44,30.03,10.0,West,6.9,-,N/A,,Scattered Clouds,260,2013-06-15 18:57:00
3:15 PM,80.6,53.6,39,30.03,10.0,West,8.1,11.5,N/A,,Scattered Clouds,260,2013-06-15 19:15:00
3:36 PM,80.6,53.6,39,30.03,10.0,WNW,5.8,-,N/A,,Clear,290,2013-06-15 19:36:00
3:57 PM,80.6,53.6,39,30.03,10.0,NW,9.2,-,N/A,,Clear,310,2013-06-15 19:57:00
4:15 PM,78.8,53.6,42,30.02,10.0,WNW,8.1,-,N/A,,Scattered Clouds,300,2013-06-15 20:15:00
4:36 PM,78.8,51.8,39,30.02,10.0,NW,8.1,-,N/A,,Scattered Clouds,310,2013-06-15 20:36:00
4:57 PM,78.8,51.8,39,30.02,10.0,WNW,6.9,-,N/A,,Scattered Clouds,290,2013-06-15 20:57:00
5:15 PM,77.0,55.4,47,30.02,10.0,West,5.8,-,N/A,,Scattered Clouds,260,2013-06-15 21:15:00
5:36 PM,78.8,53.6,42,30.02,10.0,WNW,5.8,-,N/A,,Scattered Clouds,290,2013-06-15 21:36:00
5:57 PM,77.0,53.6,44,30.02,10.0,West,8.1,-,N/A,,Scattered Clouds,280,2013-06-15 21:57:00
6:15 PM,77.0,51.8,41,30.01,10.0,WNW,4.6,-,N/A,,Clear,300,2013-06-15 22:15:00
6:36 PM,77.0,51.8,41,30.01,10.0,WNW,8.1,-,N/A,,Clear,290,2013-06-15 22:36:00
6:57 PM,75.2,51.8,44,30.02,10.0,WNW,5.8,-,N/A,,Clear,300,2013-06-15 22:57:00
7:15 PM,75.2,51.8,44,30.02,10.0,NW,4.6,-,N/A,,Clear,310,2013-06-15 23:15:00
7:36 PM,71.6,55.4,57,30.03,10.0,Calm,Calm,-,N/A,,Clear,0,2013-06-15 23:36:00
7:57 PM,69.8,59.0,68,30.03,10.0,Calm,Calm,-,N/A,,Clear,0,2013-06-15 23:57:00
8:15 PM,68.0,59.0,73,30.03,10.0,Calm,Calm,-,N/A,,Clear,0,2013-06-16 00:15:00
8:36 PM,66.2,59.0,78,30.03,10.0,Calm,Calm,-,N/A,,Clear,0,2013-06-16 00:36:00
8:57 PM,64.4,59.0,83,30.03,10.0,Calm,Calm,-,N/A,,Clear,0,2013-06-16 00:57:00
9:15 PM,62.6,59.0,88,30.03,10.0,Calm,Calm,-,N/A,,Clear,0,2013-06-16 01:15:00
9:36 PM,62.6,59.0,88,30.04,10.0,Calm,Calm,-,N/A,,Clear,0,2013-06-16 01:36:00
9:57 PM,60.8,59.0,94,30.05,10.0,Calm,Calm,-,N/A,,Clear,0,2013-06-16 01:57:00
10:15 PM,60.8,59.0,94,30.05,10.0,Calm,Calm,-,N/A,,Clear,0,2013-06-16 02:15:00
10:36 PM,60.8,59.0,94,30.05,10.0,Calm,Calm,-,N/A,,Clear,0,2013-06-16 02:36:00
10:57 PM,59.0,57.2,94,30.04,7.0,Calm,Calm,-,N/A,,Clear,0,2013-06-16 02:57:00
11:15 PM,59.0,57.2,94,30.04,7.0,Calm,Calm,-,N/A,,Clear,0,2013-06-16 03:15:00
11:36 PM,59.0,57.2,94,30.05,7.0,Calm,Calm,-,N/A,,Clear,0,2013-06-16 03:36:00
11:57 PM,59.0,55.4,88,30.05,7.0,Calm,Calm,-,N/A,,Clear,0,2013-06-16 03:57:00